�������l�o���
Date,Time,MP-1(��Sv/h),MP-2(��Sv/h),MP-3(��Sv/h),MP-4(��Sv/h),MP-5(��Sv/h),MP-6(��Sv/h),MP-7(��Sv/h),MP-8(��Sv/h),����,����(m/s),���J
2022/03/06,00:00,0.595,0.881,0.558,1.083,0.772,0.353,0.616,0.582,���k��,16.4,��
2022/03/06,00:10,0.594,0.882,0.556,1.085,0.772,0.353,0.619,0.584,���k��,17.4,��
2022/03/06,00:20,0.594,0.881,0.555,1.085,0.771,0.353,0.617,0.583,���k��,11.6,��
2022/03/06,00:30,0.594,0.882,0.557,1.085,0.769,0.352,0.616,0.582,���k��,14.2,��
2022/03/06,00:40,0.594,0.884,0.556,1.083,0.772,0.352,0.616,0.583,���k��,14.4,��
2022/03/06,00:50,0.592,0.881,0.556,1.082,0.770,0.352,0.617,0.583,��,15.8,��
2022/03/06,01:00,0.594,0.884,0.556,1.083,0.771,0.353,0.616,0.583,��,10.3,��
2022/03/06,01:10,0.593,0.882,0.557,1.083,0.770,0.354,0.616,0.581,���k��,12.5,��
2022/03/06,01:20,0.594,0.882,0.558,1.082,0.770,0.353,0.616,0.583,���k��,14.9,��
2022/03/06,01:30,0.593,0.882,0.555,1.082,0.771,0.354,0.616,0.582,��,16.0,��
2022/03/06,01:40,0.591,0.883,0.557,1.085,0.772,0.353,0.617,0.582,��,13.2,��
2022/03/06,01:50,0.593,0.883,0.557,1.084,0.770,0.353,0.615,0.583,��,14.2,��
2022/03/06,02:00,0.593,0.883,0.558,1.086,0.770,0.353,0.616,0.583,��,11.7,��
2022/03/06,02:10,0.593,0.882,0.557,1.085,0.770,0.354,0.616,0.582,���k��,9.6,��
2022/03/06,02:20,0.594,0.882,0.559,1.086,0.771,0.354,0.616,0.583,���k��,12.8,��
2022/03/06,02:30,0.594,0.884,0.559,1.085,0.770,0.354,0.616,0.583,��,9.4,��
2022/03/06,02:40,0.593,0.884,0.559,1.085,0.772,0.355,0.616,0.581,��,10.4,��
2022/03/06,02:50,0.595,0.883,0.558,1.084,0.771,0.354,0.615,0.583,��,7.0,��
2022/03/06,03:00,0.593,0.885,0.559,1.085,0.772,0.354,0.615,0.582,��,10.4,��
2022/03/06,03:10,0.594,0.881,0.560,1.084,0.770,0.355,0.618,0.582,��,8.2,��
2022/03/06,03:20,0.594,0.883,0.559,1.082,0.770,0.353,0.617,0.582,��,9.6,��
2022/03/06,03:30,0.593,0.884,0.559,1.084,0.771,0.353,0.616,0.583,���k��,8.8,��
2022/03/06,03:40,0.594,0.884,0.558,1.084,0.771,0.353,0.616,0.583,���k��,11.6,��
2022/03/06,03:50,0.591,0.884,0.558,1.085,0.773,0.354,0.616,0.582,���k��,8.9,��
2022/03/06,04:00,0.593,0.883,0.557,1.084,0.772,0.353,0.616,0.581,���k��,8.4,��
2022/03/06,04:10,0.594,0.883,0.558,1.084,0.774,0.354,0.615,0.581,���k��,8.8,��
2022/03/06,04:20,0.592,0.881,0.559,1.084,0.772,0.353,0.616,0.583,�k��,6.1,��
2022/03/06,04:30,0.593,0.882,0.559,1.085,0.772,0.354,0.615,0.581,�k��,5.5,��
2022/03/06,04:40,0.594,0.882,0.558,1.084,0.770,0.354,0.616,0.582,�k��,6.8,��
2022/03/06,04:50,0.593,0.882,0.558,1.085,0.771,0.354,0.616,0.583,���k��,5.4,��
2022/03/06,05:00,0.592,0.883,0.560,1.085,0.771,0.354,0.614,0.582,���k��,5.3,��
2022/03/06,05:10,0.593,0.882,0.559,1.086,0.770,0.356,0.615,0.583,��,8.4,��
2022/03/06,05:20,0.595,0.886,0.557,1.083,0.769,0.354,0.616,0.581,��,7.1,��
2022/03/06,05:30,0.592,0.880,0.557,1.083,0.769,0.353,0.616,0.582,��,6.9,��
2022/03/06,05:40,0.592,0.883,0.558,1.084,0.774,0.353,0.615,0.580,��,6.1,��
2022/03/06,05:50,0.591,0.881,0.557,1.082,0.770,0.353,0.615,0.582,���k��,5.5,��
2022/03/06,06:00,0.591,0.882,0.558,1.084,0.771,0.353,0.616,0.582,���k��,7.0,��
2022/03/06,06:10,0.593,0.881,0.558,1.084,0.769,0.353,0.615,0.581,��,4.4,��
2022/03/06,06:20,0.594,0.882,0.557,1.082,0.771,0.353,0.615,0.579,���k��,4.6,��
2022/03/06,06:30,0.592,0.884,0.558,1.084,0.769,0.354,0.615,0.581,��,5.4,��
2022/03/06,06:40,0.594,0.883,0.559,1.085,0.771,0.354,0.614,0.581,��,4.5,��
2022/03/06,06:50,0.593,0.881,0.558,1.085,0.770,0.354,0.615,0.580,���k��,5.4,��
2022/03/06,07:00,0.591,0.882,0.558,1.082,0.770,0.353,0.617,0.580,���k��,5.7,��
2022/03/06,07:10,0.593,0.882,0.557,1.084,0.771,0.354,0.615,0.582,���k��,7.5,��
2022/03/06,07:20,0.592,0.880,0.560,1.084,0.771,0.354,0.617,0.583,���k��,6.1,��
2022/03/06,07:30,0.592,0.881,0.558,1.084,0.771,0.354,0.617,0.581,���k��,5.6,��
2022/03/06,07:40,0.593,0.883,0.559,1.086,0.768,0.353,0.618,0.581,���k��,5.8,��
2022/03/06,07:50,0.593,0.881,0.558,1.084,0.773,0.353,0.616,0.582,���k��,3.5,��
2022/03/06,08:00,0.593,0.883,0.558,1.085,0.770,0.353,0.617,0.581,�k��,3.1,��
2022/03/06,08:10,0.593,0.882,0.559,1.084,0.771,0.354,0.617,0.579,��,4.2,��
2022/03/06,08:20,0.594,0.884,0.559,1.084,0.771,0.355,0.616,0.581,�k,1.5,��
2022/03/06,08:30,0.595,0.883,0.559,1.085,0.770,0.354,0.617,0.580,�k�k��,2.9,��
2022/03/06,08:40,0.594,0.883,0.559,1.086,0.772,0.354,0.618,0.581,���k��,6.1,��
2022/03/06,08:50,0.595,0.883,0.559,1.084,0.773,0.354,0.617,0.582,��,7.6,��
2022/03/06,09:00,0.595,0.881,0.561,1.085,0.774,0.355,0.619,0.580,��,9.0,��
2022/03/06,09:10,0.595,0.883,0.558,1.084,0.772,0.354,0.616,0.581,���k��,6.9,��
2022/03/06,09:20,0.595,0.884,0.558,1.086,0.772,0.354,0.617,0.580,���k��,7.8,��
2022/03/06,09:30,0.593,0.883,0.560,1.085,0.772,0.355,0.618,0.580,���k��,9.1,��
2022/03/06,09:40,0.595,0.885,0.558,1.085,0.771,0.354,0.616,0.581,��,9.0,��
2022/03/06,09:50,0.595,0.882,0.560,1.085,0.773,0.355,0.616,0.582,��,9.5,��
2022/03/06,10:00,0.594,0.883,0.559,1.087,0.771,0.355,0.616,0.581,��,8.7,��
2022/03/06,10:10,0.595,0.881,0.560,1.085,0.771,0.354,0.616,0.581,���k��,6.7,��
2022/03/06,10:20,0.595,0.880,0.560,1.085,0.772,0.356,0.617,0.581,���k��,5.4,��
2022/03/06,10:30,0.596,0.883,0.560,1.087,0.773,0.356,0.616,0.580,�k��,6.1,��
2022/03/06,10:40,0.596,0.882,0.561,1.087,0.770,0.355,0.614,0.581,�k��,3.6,��
2022/03/06,10:50,0.597,0.881,0.560,1.085,0.776,0.354,0.615,0.580,��,12.5,��
2022/03/06,11:00,0.596,0.881,0.559,1.088,0.772,0.354,0.615,0.580,��,9.8,��
2022/03/06,11:10,0.596,0.884,0.563,1.088,0.772,0.354,0.616,0.582,��,9.1,��
2022/03/06,11:20,0.596,0.883,0.559,1.087,0.771,0.354,0.615,0.580,���k��,9.0,��
2022/03/06,11:30,0.596,0.882,0.559,1.083,0.773,0.355,0.614,0.582,��,14.7,��
2022/03/06,11:40,0.594,0.881,0.560,1.087,0.773,0.354,0.614,0.580,��,13.1,��
2022/03/06,11:50,0.596,0.881,0.561,1.087,0.771,0.354,0.614,0.581,��,11.6,��
2022/03/06,12:00,0.596,0.883,0.560,1.087,0.773,0.355,0.615,0.582,��,12.1,��
2022/03/06,12:10,0.595,0.883,0.559,1.088,0.772,0.354,0.614,0.583,��,10.3,��
2022/03/06,12:20,0.593,0.884,0.559,1.087,0.771,0.355,0.615,0.584,���k��,12.8,��
2022/03/06,12:30,0.595,0.884,0.560,1.087,0.774,0.353,0.615,0.584,���k��,12.7,��
2022/03/06,12:40,0.595,0.882,0.561,1.086,0.771,0.355,0.615,0.581,���k��,10.8,��
2022/03/06,12:50,0.594,0.884,0.561,1.088,0.774,0.355,0.615,0.582,���k��,13.1,��
2022/03/06,13:00,0.595,0.883,0.561,1.089,0.772,0.355,0.616,0.582,��,11.6,��
2022/03/06,13:10,0.595,0.884,0.560,1.089,0.770,0.355,0.616,0.582,��,13.8,��
2022/03/06,13:20,0.595,0.883,0.559,1.089,0.773,0.355,0.614,0.581,���k��,10.7,��
2022/03/06,13:30,0.595,0.882,0.560,1.088,0.772,0.354,0.615,0.580,��,8.9,��
2022/03/06,13:40,0.594,0.883,0.560,1.087,0.772,0.355,0.613,0.580,��,9.6,��
2022/03/06,13:50,0.594,0.885,0.560,1.088,0.772,0.355,0.615,0.582,���쐼,11.9,��
2022/03/06,14:00,0.597,0.886,0.559,1.088,0.773,0.355,0.615,0.583,��,10.3,�L
2022/03/06,14:10,0.596,0.886,0.561,1.090,0.774,0.354,0.613,0.583,��,9.5,�L
2022/03/06,14:20,0.597,0.885,0.562,1.088,0.774,0.354,0.615,0.580,��,12.4,��
2022/03/06,14:30,0.597,0.887,0.562,1.088,0.774,0.355,0.615,0.581,��,15.5,��
2022/03/06,14:40,0.595,0.888,0.561,1.089,0.772,0.355,0.615,0.581,��,12.5,��
2022/03/06,14:50,0.595,0.887,0.562,1.088,0.772,0.356,0.614,0.581,��,13.0,��
2022/03/06,15:00,0.596,0.887,0.561,1.090,0.774,0.355,0.614,0.581,��,12.2,��
2022/03/06,15:10,0.597,0.888,0.560,1.088,0.772,0.355,0.615,0.581,��,13.8,��
2022/03/06,15:20,0.596,0.888,0.561,1.089,0.773,0.356,0.615,0.581,���k��,12.7,��
2022/03/06,15:30,0.596,0.887,0.560,1.089,0.774,0.356,0.613,0.583,��,16.3,��
2022/03/06,15:40,0.597,0.884,0.559,1.088,0.773,0.355,0.614,0.583,��,13.8,��
2022/03/06,15:50,0.595,0.886,0.562,1.089,0.773,0.356,0.615,0.584,��,15.3,��
2022/03/06,16:00,0.595,0.889,0.560,1.091,0.773,0.357,0.615,0.584,���k��,10.7,��
2022/03/06,16:10,0.596,0.888,0.562,1.090,0.770,0.354,0.616,0.584,��,10.6,��
2022/03/06,16:20,0.597,0.886,0.560,1.091,0.775,0.356,0.617,0.584,��,9.6,��
2022/03/06,16:30,0.597,0.887,0.560,1.089,0.773,0.355,0.616,0.584,��,8.7,��
2022/03/06,16:40,0.597,0.886,0.561,1.089,0.773,0.354,0.617,0.583,���k��,11.9,��
2022/03/06,16:50,0.594,0.886,0.559,1.089,0.773,0.355,0.615,0.581,���k��,10.2,��
2022/03/06,17:00,0.596,0.887,0.559,1.089,0.774,0.355,0.617,0.582,���k��,8.2,��
2022/03/06,17:10,0.594,0.883,0.560,1.089,0.772,0.353,0.616,0.582,��,4.3,��
2022/03/06,17:20,0.595,0.887,0.559,1.088,0.774,0.353,0.617,0.583,���k��,5.9,��
2022/03/06,17:30,0.595,0.886,0.559,1.090,0.772,0.354,0.615,0.583,���k��,6.2,��
2022/03/06,17:40,0.594,0.885,0.558,1.088,0.774,0.353,0.615,0.583,��,7.0,��
2022/03/06,17:50,0.594,0.886,0.560,1.090,0.775,0.353,0.617,0.582,��,7.6,��
2022/03/06,18:00,0.595,0.887,0.559,1.090,0.775,0.351,0.617,0.584,��,9.3,��
2022/03/06,18:10,0.595,0.884,0.559,1.090,0.773,0.352,0.616,0.582,���k��,7.7,��
2022/03/06,18:20,0.594,0.886,0.558,1.088,0.773,0.352,0.615,0.583,���k��,6.6,��
2022/03/06,18:30,0.595,0.884,0.557,1.088,0.771,0.352,0.617,0.582,�k��,5.6,��
2022/03/06,18:40,0.595,0.887,0.557,1.090,0.770,0.352,0.617,0.585,���k��,4.5,��
2022/03/06,18:50,0.595,0.886,0.557,1.088,0.773,0.354,0.616,0.582,���k��,6.6,��
2022/03/06,19:00,0.594,0.885,0.556,1.089,0.774,0.354,0.617,0.581,���k��,11.3,��
2022/03/06,19:10,0.593,0.886,0.558,1.088,0.772,0.353,0.617,0.583,���k��,7.1,��
2022/03/06,19:20,0.594,0.885,0.561,1.089,0.776,0.353,0.617,0.582,���k��,9.5,��
2022/03/06,19:30,0.595,0.883,0.559,1.087,0.775,0.354,0.617,0.583,���k��,9.3,��
2022/03/06,19:40,0.593,0.885,0.557,1.089,0.773,0.353,0.616,0.581,���k��,9.3,��
2022/03/06,19:50,0.595,0.885,0.558,1.088,0.772,0.353,0.617,0.582,��,9.8,��
2022/03/06,20:00,0.594,0.885,0.558,1.089,0.773,0.352,0.617,0.581,���k��,10.2,��
2022/03/06,20:10,0.595,0.884,0.557,1.087,0.772,0.353,0.616,0.582,���k��,11.4,��
2022/03/06,20:20,0.594,0.884,0.557,1.087,0.771,0.352,0.616,0.582,��,10.0,��
2022/03/06,20:30,0.595,0.885,0.558,1.089,0.773,0.352,0.615,0.583,���k��,8.6,��
2022/03/06,20:40,0.595,0.884,0.557,1.089,0.774,0.352,0.615,0.581,���k��,7.2,��
2022/03/06,20:50,0.594,0.884,0.558,1.090,0.773,0.352,0.617,0.582,���k��,8.3,��
2022/03/06,21:00,0.594,0.886,0.560,1.088,0.774,0.353,0.615,0.581,���k��,8.9,��
2022/03/06,21:10,0.594,0.884,0.559,1.089,0.774,0.354,0.618,0.581,��,7.9,��
2022/03/06,21:20,0.595,0.884,0.558,1.090,0.773,0.353,0.616,0.581,���k��,10.8,��
2022/03/06,21:30,0.594,0.886,0.558,1.088,0.773,0.355,0.616,0.580,���k��,11.7,��
2022/03/06,21:40,0.595,0.884,0.557,1.088,0.773,0.353,0.616,0.582,���k��,9.9,��
2022/03/06,21:50,0.594,0.885,0.557,1.089,0.774,0.354,0.615,0.582,���k��,9.3,��
2022/03/06,22:00,0.596,0.885,0.559,1.089,0.772,0.353,0.617,0.581,���k��,9.9,��
2022/03/06,22:10,0.594,0.886,0.558,1.089,0.773,0.354,0.615,0.581,���k��,8.6,��
2022/03/06,22:20,0.594,0.885,0.559,1.089,0.774,0.354,0.619,0.581,���k��,5.9,��
2022/03/06,22:30,0.592,0.884,0.557,1.089,0.775,0.353,0.614,0.582,���k��,8.2,��
2022/03/06,22:40,0.594,0.884,0.559,1.088,0.772,0.355,0.616,0.581,���k��,7.2,��
2022/03/06,22:50,0.594,0.885,0.560,1.088,0.773,0.352,0.616,0.582,���k��,6.6,��
2022/03/06,23:00,0.595,0.885,0.558,1.088,0.773,0.353,0.617,0.581,���k��,6.1,��
2022/03/06,23:10,0.594,0.886,0.560,1.088,0.772,0.354,0.615,0.581,���k��,6.2,��
2022/03/06,23:20,0.596,0.886,0.561,1.090,0.773,0.355,0.618,0.581,���k��,6.5,��
2022/03/06,23:30,0.594,0.886,0.558,1.089,0.772,0.352,0.617,0.581,���k��,7.1,��
2022/03/06,23:40,0.594,0.884,0.559,1.090,0.773,0.353,0.616,0.581,���k��,6.9,��
2022/03/06,23:50,0.595,0.883,0.559,1.089,0.772,0.351,0.615,0.581,���k��,4.6,��
